Tracking 31027 objects as of 19-Jul-2025
HD Live streaming from Space Station
objects crossing your sky now

SL-8 DEB

Track SL-8 DEB now!
10-day predictions


NORAD ID: 21936
Int'l Code: 1991-009CD
Perigee: 1,471.9 km
Apogee: 1,893.4 km
Inclination: 74.1 °
Period: 119.9 minutes
Semi major axis: 8053 km
RCS: 0.0437 m2 (small)
Launch date: February 12, 1991
Source: Commonwealth of Independent States (former USSR) (CIS)
Launch site: PLESETSK MISSILE AND SPACE COMPLEX (PKMTR)

Note: This is SATELLITE DEBRIS
Your satellite tracking list
NUSAT-20 (GRACE)
Track 1 satellite(s)




NASA's NSSDC Master Catalog

Two Line Element Set (TLE):
1 21936U 91009CD  25199.17671388 -.00000209  00000-0 -21498-2 0  9996
2 21936  74.0636 106.2786 0261651 296.8199 217.7240 12.01191436468643
Source of the keplerian elements: AFSPC